Location: Bocianicha
(51.5066°N, 19.2563°E)
Time: 13:54:54
(UTC+00:00)

IDEFIX/ARIANE 42P - Pass Details

Date: 15 June 2025
Orbit: 780 x 798 km, 98.6° (Epoch: 17 July)

Event Time Altitude Azimuth Distance (km) Brightness Sun altitude
Rises 01:09:28 0° 12° (NNE) 3,316 7.3 -8.6°
Reaches altitude 10° 01:11:51 10° 7° (N) 2,380 6.2 -8.4°
Maximum altitude 01:16:56 53° 293° (WNW) 976 3.0 -8.0°
Drops below altitude 10° 01:21:59 10° 217° (SW) 2,355 4.3 -7.5°
Enters shadow 01:22:10 - 217° (SW) 2,425 4.4 -7.5°
